TUBIN
1 48900U 21059X   25249.25768384  .00083690  00000-0  71531-3 0  9999
2 48900  97.6766  66.2428 0002733 255.6052 104.4906 15.69217652233907
LEDSAT
1 49069U 21073D   25249.17826440  .00231449  00000-0  13449-2 0  9991
2 49069  97.3804 335.2750 0003888 127.5608 232.6012 15.77846296225316
CUTE
1 49263U 21088D   25249.25828198  .00028683  00000-0  49261-3 0  9990
2 49263  97.4450 328.3032 0005094 265.6332  94.4338 15.51104236218157
TeikyoSat 4
1 49396U 21102B   25249.14658719  .00002582  00000-0  17156-3 0  9990
2 49396  97.4042 284.3671 0012377 181.4678 178.6517 15.07994753209898
Z-Sat
1 49399U 21102E   25249.20573698  .00006385  00000-0  34282-3 0  9996
2 49399  97.3736 288.0840 0018716 152.1935 208.0303 15.15113510210394
KOSEN 1
1 49402U 21102H   25249.10194055  .00009173  00000-0  40988-3 0  9994
2 49402  97.3637 292.0874 0016978 126.1640 234.1170 15.21425695210741
HO-113
1 50466U 21131B   25249.30095613  .00000953  00000-0  31089-3 0  9999
2 50466  98.5086 338.2170 0003472 216.9602 143.1348 14.40912330194224
SNUGLITE 2
1 52899U 22065F   25249.10969223  .00002006  00000-0  39678-3 0  9996
2 52899  98.1809  30.2899 0007391 186.8478 173.2625 14.63418390169431
UmKA 1 (RS40S)
1 57172U 23091G   25249.26431571  .00008279  00000-0  42934-3 0  9999
2 57172  97.5504 304.1978 0014679  33.7946 326.4219 15.16322295120911
CubeBel-2 (EU11S)
1 57175U 23091K   25249.24415634  .00015100  00000-0  68377-3 0  9992
2 57175  97.5503 305.8983 0012294  40.0411 320.1728 15.20909208121025
ENSO
1 58470U 23185J   25249.30253186  .00146207  00000-0  12967-2 0  9990
2 58470  97.3645 327.8921 0004791 129.4104 230.7582 15.68104714 98870
EIRSAT-1
1 58472U 23185L   25247.61785164  .16327471  25584-5  21378-3 0  9997
2 58472  97.3302 330.8194 0010438 267.2211  92.7899 16.48977480 98923
SONATE-2
1 59112U 24043Q   25249.29378102  .00030157  00000-0  78723-3 0  9991
2 59112  97.5236  22.4763 0010668 153.9877 206.1906 15.38702161 83961
MO-122
1 60209U 24125G   25249.15257117  .00030527  00000-0  78058-3 0  9990
2 60209  97.2693  99.9141 0017691 173.2164 186.9324 15.39226757 65568
GRBBeta
1 60237U 24128C   25249.02235871  .00006886  00000-0  50175-3 0  9994
2 60237  61.9915 131.0311 0056562  76.6856 284.0534 15.03380364 63494
Curium One
1 60242U 24128H   25249.03231378  .00011844  00000-0  78415-3 0  9996
2 60242  61.9812 127.8827 0056518  73.4172 287.3117 15.06411148 63556
ROBUSTA-3A
1 60243U 24128J   25248.99748329  .00012097  00000-0  81296-3 0  9992
2 60243  61.9884 129.1420 0055736  70.9145 289.7972 15.05881032 63538
CatSat
1 60246U 24125J   25249.10418388  .00028158  00000-0  86298-3 0  9997
2 60246  97.2504  98.0323 0041503 136.9349 223.5154 15.32883104 63534
HYPERVIEW-1G (RS66S)
1 61772U 24199AP  25249.21167000  .00034639  00000-0  88996-3 0  9995
2 61772  97.3391 118.0293 0010971 226.8102 133.2228 15.39156467 90579
AO-123
1 61781U 24199AY  25249.26438079  .00010638  00000-0  37328-3 0  9993
2 61781  97.3414 115.8897 0013767 239.6535 120.3345 15.29515869 90434
ZIMSAT 2
1 61783U 24199BA  25249.21092573  .00074756  00000-0  14330-2 0  9993
2 61783  97.3346 119.4887 0010061 216.2204 143.8366 15.47699109 93826
HADES-R (SO-124)
1 62690U 25009CK  25249.17915906  .00074087  00000-0  21052-2 0  9997
2 62690  97.4038 329.9809 0003208 151.6978 208.4441 15.35890493 35712
HYDRA-T
1 62692U 25009CM  25249.21049694  .00074092  00000-0  20755-2 0  9991
2 62692  97.4038 330.0914 0002951 147.0267 213.1162 15.36338061 35721
JINJUSat 1B
1 63210U 25052A   25248.98667388  .00017602  00000-0  75997-3 0  9998
2 63210  97.4290 142.0372 0004978  39.9867 320.1735 15.22560122 26694
NUSHSAT 1
1 63211U 25052B   25249.22565912  .00021067  00000-0  89610-3 0  9994
2 63211  97.4280 142.3056 0005219  45.1319 315.0341 15.23027888 26735
TEVEL2-4
1 63213U 25052D   25249.25889912  .00020673  00000-0  88990-3 0  9990
2 63213  97.4189 142.0726 0004918  60.2670 299.9056 15.22627237 26735
TEVEL2-5
1 63214U 25052E   25248.66954491  .00019544  00000-0  84298-3 0  9992
2 63214  97.4196 141.4870 0004917  60.7721 299.4006 15.22571391 26647
TEVEL2-6
1 63215U 25052F   25248.67399401  .00017889  00000-0  77299-3 0  9991
2 63215  97.4195 141.4836 0005023  61.4111 298.7631 15.22528443 26645
TEVEL2-1
1 63217U 25052H   25248.96132736  .00017501  00000-0  76159-3 0  9996
2 63217  97.4171 141.6538 0005513  68.9927 291.1898 15.22288571 26684
TEVEL2-3
1 63218U 25052J   25249.22436655  .00019132  00000-0  83161-3 0  9997
2 63218  97.4172 141.9151 0005561  68.6705 291.5124 15.22308567 26723
TEVEL2-2
1 63219U 25052K   25249.22494803  .00019300  00000-0  83917-3 0  9993
2 63219  97.4171 141.9135 0005528  68.4444 291.7381 15.22297351 26721
TEVEL2-9
1 63237U 25052AD  25249.23101197  .00018166  00000-0  81983-3 0  9995
2 63237  97.4236 141.7475 0009995  71.9959 288.2365 15.21003755 26703
TEVEL2-7
1 63238U 25052AE  25249.17169017  .00018465  00000-0  83541-3 0  9998
2 63238  97.4239 141.6781 0009979  72.3897 287.8428 15.20915563 26695
TEVEL2-8
1 63239U 25052AF  25249.24131514  .00018635  00000-0  84372-3 0  9990
2 63239  97.4237 141.7359 0009979  72.0655 288.1668 15.20888039 26704
HYDRA-W
1 63490U 25052BL  25248.39023072  .00044407  00000-0  16186-2 0  9996
2 63490  97.4181 141.8316 0013243  71.1093 289.1581 15.27957086 26644
HADES-ICM (SO-125)
1 63492U 25052BN  25249.22333251  .00046197  00000-0  17177-2 0  9993
2 63492  97.4181 142.5634 0013534  72.1969 288.0746 15.27288309 26762
